THY1GL LTFM-LTFE

Flight info

Callsign THY1GL
Flight time N/A
Altitude 29000
Route RATVU1E/36 RATVU UT35 NUMTI/N0481F300 DCT KULAR/N0482F290 UT44 LAVTA UW87 KAVAK
Aircraft B77W/H-SDE1E2E3FGHIJ2J3J4J5M1RWXY/LB1D1

Departure

Time N/A
Airport İstanbul Airport (LTFM)

Arrival

Time 2026-05-04 18:24
Airport Milas Bodrum International Airport (LTFE)
Time Latitude Longitude Altitude Speed Heading
2026-05-04 17:58 37.91953 30.31592 29000 ft 508 kts 174°
2026-05-04 17:58 37.88437 30.31386 29022 ft 508 kts 194°
2026-05-04 17:58 37.85123 30.29885 29039 ft 506 kts 210°
2026-05-04 17:58 37.82222 30.27417 29012 ft 502 kts 224°
2026-05-04 17:59 37.79860 30.24282 29006 ft 496 kts 236°
2026-05-04 17:59 37.78144 30.20559 29020 ft 485 kts 253°
2026-05-04 17:59 37.76083 30.12658 28803 ft 466 kts 255°
2026-05-04 18:00 37.75041 30.08799 28522 ft 462 kts 255°
2026-05-04 18:00 37.73981 30.04975 28141 ft 461 kts 255°
2026-05-04 18:00 37.72910 30.01168 27724 ft 460 kts 254°
2026-05-04 18:00 37.71831 29.97367 27336 ft 459 kts 254°
2026-05-04 18:01 37.70752 29.93583 26990 ft 457 kts 254°
2026-05-04 18:01 37.69677 29.89821 26666 ft 454 kts 254°
2026-05-04 18:01 37.68605 29.86078 26350 ft 452 kts 254°
2026-05-04 18:02 37.66473 29.78630 25677 ft 450 kts 253°
2026-05-04 18:02 37.65411 29.74927 25360 ft 448 kts 253°
2026-05-04 18:02 37.64351 29.71234 25071 ft 447 kts 253°
2026-05-04 18:02 37.63292 29.67550 24768 ft 446 kts 253°
2026-05-04 18:03 37.62246 29.63922 24501 ft 444 kts 253°
2026-05-04 18:03 37.61193 29.60267 24227 ft 442 kts 253°
2026-05-04 18:03 37.60143 29.56631 23947 ft 441 kts 253°
2026-05-04 18:03 37.59079 29.52952 23671 ft 440 kts 253°
2026-05-04 18:04 37.58034 29.49344 23366 ft 438 kts 253°
2026-05-04 18:04 37.57005 29.45798 23097 ft 435 kts 253°
2026-05-04 18:04 37.54935 29.38675 22275 ft 430 kts 253°
2026-05-04 18:05 37.53910 29.35150 21783 ft 426 kts 253°
2026-05-04 18:05 37.52894 29.31662 21289 ft 422 kts 253°
2026-05-04 18:05 37.51886 29.28209 20806 ft 419 kts 253°
2026-05-04 18:05 37.50885 29.24783 20318 ft 415 kts 253°
2026-05-04 18:06 37.48902 29.18011 19361 ft 408 kts 254°
2026-05-04 18:06 37.47921 29.14668 18906 ft 405 kts 254°
2026-05-04 18:06 37.46947 29.11351 18420 ft 403 kts 254°
2026-05-04 18:07 37.45980 29.08055 17891 ft 400 kts 255°
2026-05-04 18:07 37.45021 29.04791 17367 ft 397 kts 255°
2026-05-04 18:07 37.44078 29.01591 16909 ft 394 kts 255°
2026-05-04 18:07 37.43127 28.98372 16428 ft 390 kts 255°
2026-05-04 18:08 37.42188 28.95194 16133 ft 382 kts 255°
2026-05-04 18:08 37.41277 28.92104 15980 ft 371 kts 255°
2026-05-04 18:08 37.40394 28.89105 15818 ft 360 kts 255°
2026-05-04 18:08 37.39532 28.86193 15669 ft 350 kts 255°
2026-05-04 18:09 37.37879 28.80628 15375 ft 329 kts 256°
2026-05-04 18:09 37.36321 28.75388 15105 ft 310 kts 256°
2026-05-04 18:10 37.35571 28.72887 14925 ft 303 kts 255°
2026-05-04 18:10 37.34743 28.70462 14662 ft 300 kts 252°
2026-05-04 18:10 37.33871 28.68073 14329 ft 298 kts 252°
2026-05-04 18:10 37.32999 28.65692 13898 ft 301 kts 252°
2026-05-04 18:11 37.32138 28.63330 13719 ft 293 kts 253°
2026-05-04 18:11 37.31305 28.61030 13451 ft 288 kts 253°
2026-05-04 18:11 37.30459 28.58664 12674 ft 303 kts 253°
2026-05-04 18:11 37.29591 28.56254 12362 ft 301 kts 253°
2026-05-04 18:12 37.28733 28.53886 12195 ft 294 kts 253°
2026-05-04 18:12 37.27909 28.51615 12043 ft 286 kts 253°
2026-05-04 18:12 37.27072 28.49294 11476 ft 293 kts 253°
2026-05-04 18:12 37.26239 28.46984 11138 ft 292 kts 253°
2026-05-04 18:13 37.25405 28.44691 10956 ft 285 kts 253°
2026-05-04 18:13 37.24585 28.42431 10597 ft 286 kts 253°
2026-05-04 18:13 37.22945 28.37919 10022 ft 281 kts 253°
2026-05-04 18:14 37.22137 28.35693 9720 ft 279 kts 253°
2026-05-04 18:14 37.21336 28.33495 9447 ft 275 kts 253°
2026-05-04 18:14 37.20546 28.31332 9199 ft 271 kts 253°
2026-05-04 18:15 37.18988 28.27059 8707 ft 267 kts 253°
2026-05-04 18:15 37.17460 28.22872 8278 ft 263 kts 253°
2026-05-04 18:15 37.16709 28.20819 8029 ft 263 kts 253°
2026-05-04 18:16 37.15951 28.18743 7795 ft 260 kts 253°
2026-05-04 18:16 37.15202 28.16695 7568 ft 258 kts 253°
2026-05-04 18:16 37.14457 28.14660 7324 ft 255 kts 254°
2026-05-04 18:17 37.14526 28.10626 6978 ft 234 kts 297°
2026-05-04 18:17 37.15039 28.08621 6709 ft 245 kts 293°
2026-05-04 18:17 37.15956 28.04654 6241 ft 232 kts 294°
2026-05-04 18:18 37.16423 28.02711 6027 ft 232 kts 294°
2026-05-04 18:18 37.16870 28.00833 5834 ft 219 kts 295°
2026-05-04 18:18 37.17298 27.99061 5619 ft 205 kts 295°
2026-05-04 18:18 37.17700 27.97380 5511 ft 197 kts 296°
2026-05-04 18:19 37.18488 27.94264 5123 ft 182 kts 295°
2026-05-04 18:19 37.18860 27.92734 4962 ft 183 kts 295°
2026-05-04 18:19 37.19224 27.91204 4847 ft 185 kts 295°
2026-05-04 18:20 37.19582 27.89688 4646 ft 178 kts 295°
2026-05-04 18:20 37.19925 27.88246 4301 ft 164 kts 295°
2026-05-04 18:20 37.20239 27.86926 4037 ft 153 kts 295°
2026-05-04 18:20 37.20545 27.85668 3792 ft 151 kts 295°
2026-05-04 18:21 37.20850 27.84399 3542 ft 154 kts 295°
2026-05-04 18:21 37.21157 27.83110 3256 ft 154 kts 294°
2026-05-04 18:21 37.21461 27.81836 2971 ft 151 kts 293°
2026-05-04 18:21 37.21762 27.80576 2694 ft 151 kts 292°
2026-05-04 18:22 37.22064 27.79310 2449 ft 151 kts 291°
2026-05-04 18:22 37.22365 27.78048 2182 ft 152 kts 291°
2026-05-04 18:22 37.22663 27.76786 1908 ft 150 kts 292°
2026-05-04 18:22 37.22963 27.75536 1653 ft 149 kts 292°
2026-05-04 18:23 37.23260 27.74288 1364 ft 150 kts 290°
2026-05-04 18:23 37.23548 27.73024 1104 ft 150 kts 290°
2026-05-04 18:23 37.23873 27.71763 810 ft 153 kts 290°
2026-05-04 18:23 37.24187 27.70477 560 ft 156 kts 288°
2026-05-04 18:24 37.24460 27.69198 239 ft 147 kts 287°
2026-05-04 18:24 37.24735 27.68062 54 ft 127 kts 290°
2026-05-04 18:24 37.24928 27.67298 36 ft 54 kts 286°
2026-05-04 18:24 37.25023 27.66913 34 ft 34 kts 287°
2026-05-04 18:25 37.25048 27.66678 34 ft 12 kts 233°
2026-05-04 18:25 37.25013 27.66688 34 ft 5 kts 140°
2026-05-04 18:25 37.24985 27.66719 34 ft 5 kts 138°
2026-05-04 18:25 37.24957 27.66752 34 ft 5 kts 135°
2026-05-04 18:26 37.24927 27.66789 34 ft 9 kts 137°
2026-05-04 18:26 37.24837 27.66894 33 ft 25 kts 139°
2026-05-04 18:26 37.24723 27.66979 34 ft 24 kts 159°
2026-05-04 18:26 37.24625 27.67131 35 ft 27 kts 107°
2026-05-04 18:27 37.24570 27.67364 35 ft 34 kts 107°
2026-05-04 18:27 37.24507 27.67626 35 ft 26 kts 108°
2026-05-04 18:27 37.24460 27.67660 30 ft 8 kts 182°
2026-05-04 18:27 37.24429 27.67650 42 ft 0 kts 196°